AUR1112 EGJJ-LFRK

Flight info

Callsign AUR1112
Flight time 0h 38m
Altitude 5000
Route LUSIT
Aircraft BN2P/L-SFG/C

Departure

Time 2026-05-05 17:48
Airport Jersey Airport (EGJJ)

Arrival

Time 2026-05-05 18:26
Airport Caen Carpiquet airport (LFRK)
Time Latitude Longitude Altitude Speed Heading
2026-05-05 17:38 49.20554 -2.19752 278 ft 0 kts 175°
2026-05-05 17:44 49.20558 -2.19720 278 ft 11 kts 27°
2026-05-05 17:44 49.20596 -2.19731 278 ft 0 kts
2026-05-05 17:46 49.20609 -2.19756 278 ft 10 kts 285°
2026-05-05 17:46 49.20579 -2.19918 277 ft 22 kts 205°
2026-05-05 17:46 49.20517 -2.20004 277 ft 7 kts 292°
2026-05-05 17:46 49.20559 -2.20084 277 ft 13 kts 346°
2026-05-05 17:47 49.20642 -2.20101 277 ft 0 kts 353°
2026-05-05 17:47 49.20659 -2.20104 277 ft 10 kts 352°
2026-05-05 17:47 49.20755 -2.20075 276 ft 13 kts 71°
2026-05-05 17:47 49.20785 -2.19714 278 ft 69 kts 83°
2026-05-05 17:48 49.20868 -2.18714 315 ft 115 kts 82°
2026-05-05 17:48 49.20968 -2.17424 540 ft 125 kts 79°
2026-05-05 17:48 49.21064 -2.16044 786 ft 136 kts 76°
2026-05-05 17:48 49.21152 -2.14563 973 ft 144 kts 84°
2026-05-05 17:49 49.20916 -2.13025 1162 ft 151 kts 98°
2026-05-05 17:49 49.20688 -2.11451 1351 ft 152 kts 95°
2026-05-05 17:49 49.20460 -2.09868 1530 ft 152 kts 96°
2026-05-05 17:49 49.20232 -2.08270 1719 ft 155 kts 96°
2026-05-05 17:50 49.20107 -2.06658 1895 ft 151 kts 85°
2026-05-05 17:50 49.20058 -2.05064 2086 ft 152 kts 86°
2026-05-05 17:50 49.20010 -2.03451 2255 ft 151 kts 86°
2026-05-05 17:50 49.19973 -2.01854 2436 ft 149 kts 86°
2026-05-05 17:51 49.19928 -2.00267 2615 ft 149 kts 85°
2026-05-05 17:51 49.19879 -1.98678 2793 ft 148 kts 86°
2026-05-05 17:51 49.19829 -1.97107 2975 ft 148 kts 85°
2026-05-05 17:51 49.19774 -1.95537 3159 ft 148 kts 85°
2026-05-05 17:52 49.19707 -1.93974 3329 ft 147 kts 86°
2026-05-05 17:52 49.19642 -1.92444 3504 ft 145 kts 86°
2026-05-05 17:52 49.19585 -1.90910 3683 ft 144 kts 86°
2026-05-05 17:52 49.19649 -1.89412 3860 ft 140 kts 71°
2026-05-05 17:53 49.19866 -1.87965 4040 ft 139 kts 71°
2026-05-05 17:53 49.20079 -1.86525 4216 ft 138 kts 71°
2026-05-05 17:53 49.20286 -1.85091 4398 ft 137 kts 71°
2026-05-05 17:53 49.20495 -1.83678 4582 ft 136 kts 71°
2026-05-05 17:54 49.20706 -1.82273 4756 ft 136 kts 71°
2026-05-05 17:54 49.20917 -1.80861 4879 ft 140 kts 71°
2026-05-05 17:54 49.21017 -1.79315 4874 ft 149 kts 76°
2026-05-05 17:54 49.21167 -1.77746 4873 ft 155 kts 83°
2026-05-05 17:55 49.20898 -1.76082 4872 ft 164 kts 101°
2026-05-05 17:55 49.20548 -1.74415 4875 ft 165 kts 101°
2026-05-05 17:55 49.20195 -1.72738 4875 ft 166 kts 101°
2026-05-05 17:55 49.19844 -1.71052 4875 ft 166 kts 101°
2026-05-05 17:56 49.19494 -1.69361 4874 ft 166 kts 101°
2026-05-05 17:56 49.19144 -1.67674 4874 ft 166 kts 101°
2026-05-05 17:56 49.18795 -1.65987 4874 ft 166 kts 101°
2026-05-05 17:56 49.18446 -1.64296 4874 ft 166 kts 101°
2026-05-05 17:57 49.18100 -1.62610 4874 ft 166 kts 101°
2026-05-05 17:57 49.17751 -1.60920 4874 ft 167 kts 101°
2026-05-05 17:57 49.17399 -1.59231 4873 ft 167 kts 101°
2026-05-05 17:57 49.17050 -1.57558 4870 ft 167 kts 101°
2026-05-05 17:58 49.16697 -1.55869 4870 ft 167 kts 101°
2026-05-05 17:58 49.16351 -1.54182 4869 ft 166 kts 101°
2026-05-05 17:58 49.16018 -1.52587 4798 ft 149 kts 101°
2026-05-05 17:58 49.15698 -1.51128 4592 ft 142 kts 101°
2026-05-05 17:59 49.15375 -1.49731 4373 ft 136 kts 101°
2026-05-05 17:59 49.15050 -1.48327 4168 ft 143 kts 101°
2026-05-05 17:59 49.14717 -1.46860 3963 ft 148 kts 101°
2026-05-05 17:59 49.14374 -1.45367 3761 ft 150 kts 101°
2026-05-05 18:00 49.14054 -1.43848 3555 ft 149 kts 97°
2026-05-05 18:00 49.13781 -1.42347 3353 ft 148 kts 96°
2026-05-05 18:00 49.13524 -1.40846 3152 ft 145 kts 95°
2026-05-05 18:00 49.13293 -1.39360 2943 ft 143 kts 94°
2026-05-05 18:01 49.13088 -1.37913 2900 ft 137 kts 93°
2026-05-05 18:01 49.12891 -1.36496 2897 ft 135 kts 92°
2026-05-05 18:01 49.12695 -1.35096 2900 ft 135 kts 93°
2026-05-05 18:01 49.12500 -1.33690 2898 ft 135 kts 93°
2026-05-05 18:02 49.12305 -1.32291 2917 ft 135 kts 93°
2026-05-05 18:02 49.12109 -1.30896 2914 ft 134 kts 92°
2026-05-05 18:02 49.11913 -1.29510 2910 ft 132 kts 93°
2026-05-05 18:02 49.11718 -1.28151 2911 ft 131 kts 93°
2026-05-05 18:03 49.11524 -1.26804 2909 ft 129 kts 93°
2026-05-05 18:03 49.11333 -1.25490 2907 ft 128 kts 93°
2026-05-05 18:03 49.11142 -1.24165 2904 ft 127 kts 93°
2026-05-05 18:03 49.10954 -1.22846 2901 ft 127 kts 93°
2026-05-05 18:04 49.10765 -1.21527 2903 ft 127 kts 93°
2026-05-05 18:04 49.10577 -1.20199 2904 ft 128 kts 92°
2026-05-05 18:04 49.10389 -1.18864 2902 ft 128 kts 93°
2026-05-05 18:04 49.10203 -1.17541 2901 ft 127 kts 92°
2026-05-05 18:05 49.10015 -1.16234 2899 ft 125 kts 92°
2026-05-05 18:05 49.09826 -1.14968 2900 ft 123 kts 93°
2026-05-05 18:05 49.09634 -1.13670 2902 ft 124 kts 92°
2026-05-05 18:05 49.09444 -1.12405 2901 ft 124 kts 93°
2026-05-05 18:06 49.09258 -1.11134 2897 ft 122 kts 92°
2026-05-05 18:06 49.09129 -1.10285 2895 ft 122 kts 92°
2026-05-05 18:06 49.08881 -1.08618 2896 ft 121 kts 91°
2026-05-05 18:06 49.08756 -1.07352 2896 ft 120 kts 89°
2026-05-05 18:07 49.08636 -1.06096 2897 ft 119 kts 89°
2026-05-05 18:07 49.08513 -1.04856 2901 ft 120 kts 89°
2026-05-05 18:07 49.08386 -1.03580 2901 ft 121 kts 89°
2026-05-05 18:07 49.08256 -1.02311 2900 ft 121 kts 89°
2026-05-05 18:08 49.08131 -1.01067 2895 ft 118 kts 89°
2026-05-05 18:08 49.08006 -0.99830 2899 ft 117 kts 89°
2026-05-05 18:08 49.07881 -0.98601 2895 ft 117 kts 89°
2026-05-05 18:08 49.07758 -0.97382 2895 ft 116 kts 89°
2026-05-05 18:09 49.07643 -0.96176 2893 ft 116 kts 89°
2026-05-05 18:09 49.07527 -0.94946 2893 ft 117 kts 89°
2026-05-05 18:09 49.07423 -0.93714 2889 ft 117 kts 89°
2026-05-05 18:09 49.07324 -0.92491 2883 ft 116 kts 89°
2026-05-05 18:10 49.07222 -0.91278 2885 ft 114 kts 89°
2026-05-05 18:10 49.07123 -0.90087 2887 ft 114 kts 89°
2026-05-05 18:10 49.07023 -0.88887 2889 ft 113 kts 89°
2026-05-05 18:10 49.06919 -0.87692 2899 ft 114 kts 89°
2026-05-05 18:11 49.06812 -0.86471 2869 ft 117 kts 90°
2026-05-05 18:11 49.06680 -0.85242 2859 ft 117 kts 90°
2026-05-05 18:11 49.06545 -0.84029 2860 ft 115 kts 91°
2026-05-05 18:11 49.06411 -0.82834 2859 ft 113 kts 91°
2026-05-05 18:12 49.06276 -0.81661 2860 ft 112 kts 92°
2026-05-05 18:12 49.06143 -0.80505 2860 ft 112 kts 91°
2026-05-05 18:12 49.06007 -0.79328 2858 ft 113 kts 91°
2026-05-05 18:12 49.05870 -0.78154 2856 ft 112 kts 92°
2026-05-05 18:13 49.05732 -0.76989 2859 ft 111 kts 91°
2026-05-05 18:13 49.05595 -0.75823 2860 ft 111 kts 92°
2026-05-05 18:13 49.05457 -0.74666 2858 ft 111 kts 92°
2026-05-05 18:13 49.05319 -0.73515 2857 ft 110 kts 91°
2026-05-05 18:14 49.05181 -0.72372 2852 ft 108 kts 91°
2026-05-05 18:14 49.05044 -0.71261 2843 ft 107 kts 91°
2026-05-05 18:14 49.04917 -0.70170 2889 ft 102 kts 88°
2026-05-05 18:14 49.04809 -0.69120 2930 ft 98 kts 88°
2026-05-05 18:15 49.05044 -0.68231 2764 ft 102 kts 44°
2026-05-05 18:15 49.05554 -0.67423 2659 ft 105 kts 46°
2026-05-05 18:15 49.05962 -0.66532 2669 ft 103 kts 62°
2026-05-05 18:15 49.06168 -0.65381 2411 ft 120 kts 68°
2026-05-05 18:16 49.06378 -0.64146 2351 ft 118 kts 69°
2026-05-05 18:16 49.06558 -0.62917 2293 ft 119 kts 69°
2026-05-05 18:16 49.06749 -0.61721 2336 ft 112 kts 69°
2026-05-05 18:16 49.06897 -0.60544 2230 ft 118 kts 73°
2026-05-05 18:17 49.06987 -0.59256 2095 ft 121 kts 78°
2026-05-05 18:17 49.07048 -0.57955 1985 ft 121 kts 79°
2026-05-05 18:17 49.07099 -0.56695 1990 ft 119 kts 79°
2026-05-05 18:17 49.07161 -0.55443 1961 ft 121 kts 78°
2026-05-05 18:18 49.07263 -0.54197 1950 ft 115 kts 68°
2026-05-05 18:18 49.07483 -0.53041 1944 ft 111 kts 65°
2026-05-05 18:18 49.07707 -0.51946 1961 ft 106 kts 66°
2026-05-05 18:18 49.07887 -0.50849 1944 ft 108 kts 70°
2026-05-05 18:19 49.08036 -0.49707 1896 ft 111 kts 72°
2026-05-05 18:19 49.08141 -0.48930 1803 ft 114 kts 70°
2026-05-05 18:19 49.08401 -0.47369 1668 ft 115 kts 73°
2026-05-05 18:19 49.08477 -0.46562 1590 ft 116 kts 75°
2026-05-05 18:20 49.08579 -0.45365 1566 ft 112 kts 76°
2026-05-05 18:20 49.08719 -0.44231 1561 ft 107 kts 67°
2026-05-05 18:20 49.09036 -0.42836 1504 ft 105 kts 64°
2026-05-05 18:20 49.09197 -0.42129 1468 ft 103 kts 63°
2026-05-05 18:21 49.09456 -0.41141 1448 ft 95 kts 62°
2026-05-05 18:21 49.09684 -0.40252 1439 ft 88 kts 62°
2026-05-05 18:21 49.09962 -0.39444 1343 ft 85 kts 51°
2026-05-05 18:21 49.10314 -0.38685 1222 ft 88 kts 44°
2026-05-05 18:22 49.10728 -0.37992 1182 ft 88 kts 39°
2026-05-05 18:22 49.11183 -0.37359 1147 ft 89 kts 38°
2026-05-05 18:22 49.11658 -0.36745 1112 ft 90 kts 31°
2026-05-05 18:22 49.12180 -0.36282 1095 ft 86 kts 26°
2026-05-05 18:23 49.12768 -0.36150 1004 ft 86 kts 351°
2026-05-05 18:23 49.13277 -0.36528 1058 ft 79 kts 325°
2026-05-05 18:23 49.13679 -0.37147 1031 ft 86 kts 317°
2026-05-05 18:23 49.14049 -0.37889 1010 ft 90 kts 311°
2026-05-05 18:24 49.14409 -0.38698 977 ft 92 kts 308°
2026-05-05 18:24 49.14776 -0.39513 909 ft 94 kts 309°
2026-05-05 18:24 49.15154 -0.40328 834 ft 92 kts 307°
2026-05-05 18:24 49.15528 -0.41104 762 ft 91 kts 308°
2026-05-05 18:25 49.15903 -0.41921 639 ft 95 kts 306°
2026-05-05 18:25 49.16146 -0.42460 587 ft 87 kts 308°
2026-05-05 18:25 49.16568 -0.43398 432 ft 75 kts 309°
2026-05-05 18:25 49.16863 -0.43998 336 ft 68 kts 306°
2026-05-05 18:26 49.17124 -0.44554 272 ft 63 kts 306°
2026-05-05 18:26 49.17378 -0.45092 251 ft 63 kts 305°
2026-05-05 18:26 49.17621 -0.45622 250 ft 55 kts 304°
2026-05-05 18:26 49.17788 -0.45985 246 ft 38 kts 304°
2026-05-05 18:27 49.17934 -0.46257 246 ft 28 kts 340°
2026-05-05 18:27 49.18077 -0.46149 245 ft 26 kts 34°
2026-05-05 18:27 49.18221 -0.45993 245 ft 17 kts 24°
2026-05-05 18:27 49.18282 -0.45977 245 ft 0 kts